INTERCOSMOS 24 (20261 NORAD) Tracking and Keplerian Element Data

This shows tracking and keplerian element data for the satellite.

Feedback or suggestion? Click here.




ElementValue
Catalog20261
NameINTERCOSMOS 24
Epoch Orbit56744
Epoch Day13.17137319
Epoch Year2024
RAAN255.3647
Inclination82.6052
Eccentricity0.1196875
Argument of Perigee315.4201
Mean Anonmoly35.6423
Mean Motion12.57526092
Decay Rate1.508E-05
L11 20261U 89080A 24013.17137319 .00001508 00000+0 44935-3 0 9999
L22 20261 82.6052 255.3647 1196875 315.4201 35.6423 12.57526092567449



Live tracking and technical data element details for INTERCOSMOS 24 (NORAD 20261). INTERCOSMOS 24 can be tracked NOW for your location showing map with azimuth and elevation plus other details from your city location.







IsCatalogInMostPopularTable: catalog: 20261, numindb: 306
Update: records affected: 1



GetName: 20261 INTERCOSMOS 24

Hit Count: updated at: Fri, 19 Apr 2024 12:56:05 GMT